This demonstration page uses our WeatherBlox Daily Observations layout. Learn more.

Left ArrowRight Arrow

39.95238, -75.16362

Hourly Observations for April 24, 2022

Temp ( °F °C ) Dew Point ( °F °C ) Humidity (%) Winds ( mph kmh ) Pressure ( in mb ) Visibility ( mi km ) Precip ( " mm )
12:54 am 00:54 Partly Cloudy 54 12.2 40 4.4 59 59 E 5 7 30.22 1024 10 16 0.00 0.00
1:54 am 01:54 Mostly Cloudy 53 11.7 38 3.3 57 57 E 5 7 30.20 1023 10 16 0.00 0.00
2:54 am 02:54 Mostly Cloudy 53 11.7 40 4.4 61 61 E 6 9 30.18 1022 10 16 0.00 0.00
3:54 am 03:54 Mostly Cloudy 52 11.1 42 5.6 69 69 E 7 11 30.16 1021 10 16 0.00 0.00
4:54 am 04:54 Mostly Clear 50 10 43 6.1 77 77 ENE 6 9 30.16 1021 10 16 0.00 0.00
5:54 am 05:54 Mostly Clear 50 10 43 6.1 77 77 NE 6 9 30.17 1022 10 16 0.00 0.00
6:54 am 06:54 Mostly Cloudy 51 10.6 44 6.7 77 77 NE 7 11 30.19 1023 10 16 0.00 0.00
7:54 am 07:54 Mostly Cloudy 53 11.7 44 6.7 72 72 ENE 10 17 30.20 1023 10 16 0.00 0.00
8:54 am 08:54 Mostly Cloudy 58 14.4 45 7.2 62 62 E 9 15 30.20 1023 10 16 0.00 0.00
9:54 am 09:54 Partly Cloudy 61 16.1 45 7.2 56 56 E 12 19 30.20 1023 10 16 0.00 0.00
10:54 am 10:54 Partly Cloudy 62 16.7 44 6.7 52 52 E 10 17 30.21 1023 10 16 0.00 0.00
11:54 am 11:54 Mostly Sunny 66 18.9 45 7.2 47 47 E 10 17 30.20 1023 10 16 0.00 0.00
12:54 pm 12:54 Mostly Sunny 70 21.1 47 8.3 44 44 ESE 13 20 30.19 1022 10 16 0.00 0.00
1:54 pm 13:54 Mostly Sunny 70 21.1 48 8.9 46 46 NE 9 15 30.18 1022 10 16 0.00 0.00
2:54 pm 14:54 Mostly Sunny 70 21.1 48 8.9 46 46 NE 9 15 30.16 1022 10 16 0.00 0.00
3:54 pm 15:54 Mostly Sunny 72 22.2 44 6.7 37 37 S 9 15 30.15 1021 10 16 0.00 0.00
4:54 pm 16:54 Mostly Sunny 67 19.4 44 6.7 44 44 SE 15 24 30.16 1021 10 16 0.00 0.00
5:54 pm 17:54 Mostly Sunny 66 18.9 44 6.7 45 45 SSE 14 22 30.17 1022 10 16 0.00 0.00
6:54 pm 18:54 Mostly Sunny 62 16.7 44 6.7 52 52 SE 14 22 30.17 1022 10 16 0.00 0.00
7:54 pm 19:54 Mostly Clear 59 15 45 7.2 60 60 SSE 14 22 30.19 1023 10 16 0.00 0.00
8:54 pm 20:54 Clear 55 12.8 46 7.8 72 72 SSE 14 22 30.20 1023 10 16 0.00 0.00
9:54 pm 21:54 Mostly Clear 54 12.2 44 6.7 69 69 ESE 12 19 30.21 1023 10 16 0.00 0.00
10:54 pm 22:54 Partly Cloudy 52 11.1 44 6.7 75 75 E 8 13 30.20 1023 10 16 0.00 0.00
11:54 pm 23:54 Mostly Cloudy 51 10.6 44 6.7 77 77 E 9 15 30.19 1022 10 16 0.00 0.00

Powered by AerisWeather